When you browse on this site, cookies collect data to enhance your experience and personalize the content and advertising you see.
Visit our Privacy Policy to learn more. By continuing to use the site, you agree to this use of cookies and data.
  • In Romania
  • List of Countries
  • For 7 days
  • Water Temperature
  • Satellite Maps
  • Weather Map
  • Weather Widgets
  • user-avatar
    Login

    Hourly Weather Abishevo

    Today, 24 July, Wednesday

    Time Temperature Precipitation Wind Pressure Humidity
    00:00 +15°C° 0 mm 1 mps 750 mmHg 92%
    01:00 +15°C° 0 mm 1 mps 750 mmHg 92%
    02:00 +15°C° 0 mm 1 mps 750 mmHg 93%
    03:00 +14°C° 0 mm 1 mps 750 mmHg 93%
    04:00 +14°C° 0 mm 1 mps 750 mmHg 93%
    05:00 +15°C° 0 mm 1 mps 750 mmHg 91%
    06:00 +16°C° 0 mm 2 mps 751 mmHg 89%
    07:00 +17°C° 0 mm 2 mps 751 mmHg 87%
    08:00 +19°C° 0 mm 2 mps 751 mmHg 82%
    09:00 +20°C° 0 mm 3 mps 751 mmHg 78%
    10:00 +21°C° 0 mm 3 mps 751 mmHg 74%
    11:00 +22°C° 0 mm 3 mps 751 mmHg 72%
    12:00 +22°C° 0 mm 3 mps 751 mmHg 69%
    13:00 +24°C° 0 mm 3 mps 751 mmHg 67%
    14:00 +24°C° 0 mm 3 mps 751 mmHg 68%
    15:00 +24°C° 0 mm 3 mps 751 mmHg 69%
    16:00 +24°C° 0 mm 3 mps 751 mmHg 70%
    17:00 +24°C° 0 mm 3 mps 751 mmHg 74%
    18:00 +22°C° 0 mm 3 mps 751 mmHg 79%
    19:00 +22°C° 0 mm 3 mps 751 mmHg 83%
    20:00 +20°C° 0 mm 2 mps 751 mmHg 86%
    21:00 +19°C° 0 mm 2 mps 751 mmHg 90%
    22:00 +18°C° 0 mm 2 mps 751 mmHg 93%
    23:00 +17°C° 0 mm 2 mps 751 mmHg 93%

    Tomorrow, 25 July, Thursday

    Time Temperature Precipitation Wind Pressure Humidity
    00:00 +17°C° 0 mm 2 mps 752 mmHg 93%
    01:00 +17°C° 0 mm 2 mps 752 mmHg 93%
    02:00 +16°C° 0 mm 2 mps 752 mmHg 94%
    03:00 +16°C° 0 mm 2 mps 752 mmHg 94%
    04:00 +16°C° 0 mm 1 mps 752 mmHg 94%
    05:00 +17°C° 0 mm 2 mps 752 mmHg 91%
    06:00 +18°C° 0 mm 2 mps 752 mmHg 89%
    07:00 +19°C° 0 mm 2 mps 752 mmHg 87%
    08:00 +20°C° 0 mm 2 mps 752 mmHg 80%
    09:00 +23°C° 0 mm 2 mps 752 mmHg 74%
    10:00 +25°C° 0 mm 3 mps 752 mmHg 67%
    11:00 +25°C° 0 mm 3 mps 752 mmHg 64%
    12:00 +26°C° 0 mm 3 mps 752 mmHg 60%
    13:00 +27°C° 0 mm 3 mps 752 mmHg 56%
    14:00 +27°C° 0 mm 3 mps 752 mmHg 56%
    15:00 +27°C° 0 mm 3 mps 752 mmHg 56%
    16:00 +27°C° 0 mm 3 mps 752 mmHg 57%
    17:00 +26°C° 0 mm 3 mps 752 mmHg 63%
    18:00 +25°C° 0 mm 3 mps 752 mmHg 69%
    19:00 +24°C° 0 mm 2 mps 752 mmHg 74%
    20:00 +23°C° 0 mm 2 mps 752 mmHg 76%
    21:00 +20°C° 0 mm 2 mps 752 mmHg 78%
    22:00 +19°C° 0 mm 2 mps 752 mmHg 80%
    23:00 +18°C° 0 mm 2 mps 752 mmHg 82%

    Day after tomorrow, 26 July, Friday

    Time Temperature Precipitation Wind Pressure Humidity
    00:00 +18°C° 0 mm 2 mps 752 mmHg 84%
    01:00 +17°C° 0 mm 2 mps 752 mmHg 85%
    02:00 +17°C° 0 mm 2 mps 752 mmHg 87%
    03:00 +16°C° 0 mm 1 mps 752 mmHg 88%
    04:00 +16°C° 0 mm 1 mps 752 mmHg 89%
    05:00 +18°C° 0 mm 1 mps 752 mmHg 87%
    06:00 +19°C° 0 mm 1 mps 752 mmHg 84%
    07:00 +20°C° 0 mm 1 mps 752 mmHg 82%
    08:00 +21°C° 0 mm 1 mps 752 mmHg 77%
    09:00 +23°C° 0 mm 1 mps 752 mmHg 71%
    10:00 +24°C° 0 mm 2 mps 752 mmHg 66%
    11:00 +25°C° 0 mm 2 mps 752 mmHg 63%
    12:00 +26°C° 0 mm 3 mps 752 mmHg 61%
    13:00 +26°C° 0 mm 4 mps 751 mmHg 58%
    14:00 +26°C° 0 mm 4 mps 751 mmHg 58%
    15:00 +26°C° 0 mm 4 mps 750 mmHg 58%
    16:00 +26°C° 0 mm 3 mps 750 mmHg 58%
    17:00 +25°C° 0 mm 3 mps 750 mmHg 64%
    18:00 +25°C° 0 mm 3 mps 750 mmHg 70%
    19:00 +24°C° 0 mm 3 mps 749 mmHg 76%
    20:00 +21°C° 0 mm 2 mps 749 mmHg 77%
    21:00 +20°C° 0 mm 2 mps 749 mmHg 78%
    22:00 +18°C° 0 mm 2 mps 749 mmHg 78%
    23:00 +17°C° 0 mm 2 mps 749 mmHg 80%

    27 July, Saturday

    Time Temperature Precipitation Wind Pressure Humidity
    00:00 +17°C° 0 mm 2 mps 749 mmHg 82%
    01:00 +16°C° 0 mm 1 mps 748 mmHg 84%
    02:00 +16°C° 0 mm 1 mps 748 mmHg 84%
    03:00 +15°C° 0 mm 1 mps 748 mmHg 84%
    04:00 +15°C° 0 mm 1 mps 748 mmHg 85%
    05:00 +16°C° 0 mm 1 mps 748 mmHg 83%
    06:00 +18°C° 0 mm 1 mps 748 mmHg 81%
    07:00 +18°C° 0 mm 2 mps 748 mmHg 79%
    08:00 +19°C° 0 mm 2 mps 747 mmHg 75%
    09:00 +21°C° 0 mm 2 mps 747 mmHg 71%
    10:00 +23°C° 0 mm 2 mps 747 mmHg 68%
    11:00 +24°C° 0 mm 3 mps 746 mmHg 64%
    12:00 +25°C° 0 mm 3 mps 746 mmHg 61%
    13:00 +26°C° 0 mm 3 mps 746 mmHg 58%
    14:00 +26°C° 0 mm 3 mps 745 mmHg 58%
    15:00 +26°C° 0 mm 2 mps 745 mmHg 58%
    16:00 +26°C° 0 mm 2 mps 744 mmHg 58%
    17:00 +25°C° 0 mm 2 mps 744 mmHg 63%
    18:00 +24°C° 0 mm 2 mps 744 mmHg 67%
    19:00 +23°C° 0 mm 2 mps 743 mmHg 72%
    20:00 +21°C° 0 mm 2 mps 743 mmHg 74%
    21:00 +20°C° 0 mm 3 mps 742 mmHg 76%
    22:00 +19°C° 0 mm 3 mps 742 mmHg 78%
    23:00 +19°C° 0 mm 3 mps 741 mmHg 79%

    28 July, Sunday

    Time Temperature Precipitation Wind Pressure Humidity
    00:00 +18°C° 0 mm 2 mps 741 mmHg 80%
    01:00 +17°C° 0 mm 2 mps 740 mmHg 81%
    02:00 +17°C° 0 mm 2 mps 740 mmHg 81%
    03:00 +17°C° 0 mm 2 mps 739 mmHg 82%
    04:00 +17°C° 0 mm 2 mps 739 mmHg 82%
    05:00 +18°C° 0 mm 2 mps 738 mmHg 81%
    06:00 +18°C° 0 mm 3 mps 738 mmHg 81%
    07:00 +19°C° 0 mm 3 mps 737 mmHg 80%
    08:00 +20°C° 0 mm 3 mps 737 mmHg 77%
    09:00 +22°C° 0 mm 3 mps 736 mmHg 73%
    10:00 +23°C° 0 mm 4 mps 736 mmHg 69%
    11:00 +25°C° 0 mm 3 mps 736 mmHg 67%
    12:00 +26°C° 0 mm 3 mps 735 mmHg 64%
    13:00 +26°C° 0 mm 3 mps 735 mmHg 61%
    14:00 +26°C° 0.4 mm 4 mps 735 mmHg 64%
    15:00 +25°C° 0.4 mm 5 mps 735 mmHg 68%
    16:00 +25°C° 0.4 mm 5 mps 734 mmHg 71%
    17:00 +21°C° 0.4 mm 6 mps 735 mmHg 78%
    18:00 +19°C° 0.4 mm 6 mps 735 mmHg 85%
    19:00 +15°C° 0.4 mm 7 mps 735 mmHg 91%
    20:00 +14°C° 0.1 mm 6 mps 735 mmHg 91%
    21:00 +14°C° 0.1 mm 6 mps 735 mmHg 91%
    22:00 +13°C° 0.1 mm 6 mps 735 mmHg 91%
    23:00 +11°C° 0 mm 6 mps 735 mmHg 90%

    29 July, Monday

    Time Temperature Precipitation Wind Pressure Humidity
    00:00 +10°C° 0 mm 5 mps 735 mmHg 89%
    01:00 +10°C° 0 mm 5 mps 735 mmHg 88%
    02:00 +10°C° 0 mm 4 mps 736 mmHg 89%
    03:00 +8°C° 0 mm 4 mps 736 mmHg 89%
    04:00 +7°C° 0 mm 4 mps 736 mmHg 90%
    05:00 +8°C° 0 mm 4 mps 736 mmHg 87%
    06:00 +8°C° 0 mm 4 mps 736 mmHg 85%
    07:00 +10°C° 0 mm 4 mps 737 mmHg 83%
    08:00 +10°C° 0 mm 4 mps 737 mmHg 79%
    09:00 +11°C° 0 mm 4 mps 737 mmHg 74%
    10:00 +12°C° 0 mm 4 mps 737 mmHg 70%
    11:00 +12°C° 0.1 mm 4 mps 737 mmHg 69%
    12:00 +13°C° 0.1 mm 4 mps 737 mmHg 68%
    13:00 +13°C° 0.1 mm 4 mps 737 mmHg 66%
    14:00 +12°C° 0.3 mm 4 mps 738 mmHg 70%
    15:00 +12°C° 0.3 mm 5 mps 738 mmHg 73%
    16:00 +10°C° 0.3 mm 5 mps 738 mmHg 76%
    17:00 +10°C° 0.1 mm 5 mps 738 mmHg 76%
    18:00 +10°C° 0.1 mm 4 mps 738 mmHg 77%
    19:00 +10°C° 0.1 mm 4 mps 739 mmHg 77%
    20:00 +8°C° 0 mm 4 mps 739 mmHg 80%
    21:00 +7°C° 0 mm 3 mps 739 mmHg 84%
    22:00 +5°C° 0 mm 3 mps 739 mmHg 87%
    23:00 +5°C° 0 mm 3 mps 739 mmHg 89%
    Show more